Total_Precipitation_Accumulation
0.64 0.36 0.38 0.36 0.30 0.33 0.32 0.33 0.37 0.37 0.35 0.30 0.26 0.21 0.19 0.21 0.21 0.21 0.21 0.23 0.30 0.44 0.54 0.56 0.58 0.63 0.65 0.68 0.71 0.70 0.62 0.54 0.57 0.68 0.71 0.66 0.72 0.86 0.92 0.91 0.97 0.87 0.76
0.49 0.34 0.42 0.38 0.33 0.33 0.33 0.37 0.40 0.42 0.40 0.36 0.30 0.25 0.23 0.22 0.22 0.26 0.28 0.30 0.39 0.46 0.50 0.56 0.58 0.59 0.55 0.52 0.52 0.54 0.49 0.51 0.59 0.76 0.86 0.85 0.97 1.12 1.16 1.13 1.39 1.28 0.85
0.35 0.31 0.40 0.40 0.36 0.38 0.36 0.39 0.44 0.46 0.44 0.41 0.36 0.31 0.30 0.29 0.30 0.33 0.36 0.41 0.51 0.55 0.54 0.57 0.61 0.57 0.51 0.44 0.43 0.44 0.50 0.55 0.75 0.98 1.33 1.44 1.37 1.40 1.26 1.19 1.23 1.13 0.86
0.37 0.45 0.46 0.39 0.37 0.39 0.39 0.43 0.43 0.45 0.49 0.51 0.48 0.37 0.33 0.35 0.39 0.40 0.42 0.46 0.56 0.68 0.65 0.57 0.55 0.53 0.46 0.42 0.43 0.44 0.51 0.61 0.94 1.30 1.80 1.76 1.85 1.89 1.52 1.29 1.25 1.14 1.00
0.46 0.60 0.56 0.44 0.43 0.41 0.47 0.45 0.47 0.47 0.50 0.55 0.55 0.48 0.41 0.37 0.37 0.41 0.48 0.56 0.62 0.71 0.89 0.76 0.62 0.55 0.46 0.43 0.45 0.50 0.58 0.72 1.06 1.42 1.86 2.21 2.55 2.46 1.76 1.44 1.36 1.29 1.13
0.51 0.57 0.56 0.53 0.51 0.49 0.52 0.52 0.55 0.58 0.57 0.55 0.56 0.56 0.53 0.45 0.44 0.48 0.60 0.67 0.69 0.71 0.84 0.99 0.84 0.73 0.61 0.51 0.50 0.55 0.68 0.90 1.06 1.36 2.06 2.53 2.59 2.42 1.85 1.56 1.47 1.54 1.42
0.57 0.60 0.70 0.75 0.77 0.74 0.69 0.68 0.69 0.67 0.66 0.64 0.59 0.59 0.63 0.55 0.52 0.61 0.71 0.77 0.81 0.84 0.90 0.91 0.83 0.82 0.72 0.60 0.56 0.60 0.74 0.97 1.10 1.50 2.08 2.54 2.50 2.30 2.00 1.80 1.69 1.69 1.62
0.68 0.76 0.90 1.04 1.14 1.03 0.90 0.83 0.82 0.72 0.66 0.69 0.68 0.66 0.69 0.65 0.62 0.67 0.78 0.88 0.98 1.03 1.03 0.98 0.89 0.83 0.89 0.79 0.69 0.68 0.79 0.93 0.98 1.39 1.89 2.20 2.15 2.02 2.07 1.93 1.85 1.73 1.64
1.03 1.12 1.10 1.05 1.05 1.06 0.99 0.89 0.90 0.85 0.77 0.77 0.77 0.73 0.75 0.74 0.71 0.77 0.93 1.02 1.03 0.97 0.99 1.01 1.02 0.89 0.84 0.83 0.78 0.77 0.85 1.01 1.15 1.34 1.65 2.02 1.95 2.08 2.22 2.02 1.83 1.79 1.75
1.71 1.98 1.52 1.21 1.07 0.97 0.96 1.00 1.01 1.06 1.00 0.92 0.88 0.82 0.82 0.86 0.89 0.95 1.00 1.05 1.06 1.02 1.01 1.06 1.10 1.03 0.93 0.84 0.81 0.80 0.90 0.98 0.93 1.25 1.76 1.89 1.94 2.25 2.55 2.38 2.08 1.91 1.81
2.04 2.30 1.78 1.46 1.31 1.22 1.21 1.22 1.25 1.27 1.22 1.14 1.07 1.01 1.05 1.17 1.37 1.39 1.19 1.25 1.16 1.15 1.14 1.13 1.11 1.06 1.11 1.08 1.03 1.02 1.01 0.97 1.21 1.50 1.75 1.91 2.16 2.49 2.71 2.61 2.31 2.09 1.97
2.13 1.98 1.91 1.87 1.66 1.53 1.49 1.61 1.63 1.51 1.52 1.37 1.48 1.39 1.49 1.87 1.99 1.70 1.68 1.65 1.53 1.44 1.41 1.39 1.41 1.34 1.26 1.24 1.35 1.37 1.12 1.11 1.41 1.71 1.88 1.95 2.22 2.69 2.90 2.70 2.46 2.38 2.30
2.84 2.34 2.15 2.04 1.98 1.87 1.96 2.13 2.17 2.14 2.12 1.91 2.00 1.91 2.00 2.12 2.05 2.03 2.07 1.94 1.93 1.84 1.91 1.99 1.83 1.61 1.48 1.52 1.59 1.55 1.41 1.43 1.50 1.71 1.90 2.07 2.32 2.78 3.05 2.88 2.59 2.53 2.56
3.10 2.94 2.47 2.38 2.49 2.69 2.71 2.60 2.51 2.46 2.50 2.41 2.45 2.23 2.35 2.43 2.43 2.34 2.38 2.28 2.37 2.31 2.38 2.34 2.23 2.10 1.94 1.77 1.71 1.76 1.81 1.78 1.69 1.82 2.12 2.21 2.26 2.59 3.02 3.05 2.84 2.73 2.74
3.05 2.89 2.75 2.94 3.07 3.14 3.09 3.01 2.81 2.75 2.95 2.94 2.90 2.75 2.73 2.65 2.54 2.51 2.47 2.52 2.44 2.58 2.67 2.70 2.45 2.30 2.20 2.03 1.86 1.84 1.94 1.92 1.99 2.06 2.20 2.25 2.13 2.35 2.85 3.25 3.27 3.27 3.23
2.96 3.12 3.14 3.34 3.28 3.20 3.19 3.31 3.32 3.13 3.27 3.47 3.56 3.40 3.13 2.99 2.92 2.88 2.96 2.96 2.70 2.70 2.83 3.00 2.87 2.68 2.35 2.15 1.99 1.97 1.98 1.95 2.01 2.15 2.27 2.35 2.28 2.24 2.66 3.17 3.46 3.62 3.62
3.16 3.23 3.40 3.27 3.47 3.60 3.58 3.55 3.53 3.44 3.47 3.59 3.74 3.81 3.41 3.15 3.27 3.24 3.37 3.36 3.01 2.93 3.08 3.22 3.24 3.10 2.65 2.34 2.23 2.25 2.25 2.31 2.18 2.20 2.39 2.48 2.40 2.36 2.57 2.75 3.01 3.28 3.47
3.23 3.59 3.61 3.21 3.63 3.83 3.80 3.72 3.49 3.57 3.82 3.98 3.97 4.06 3.77 3.40 3.31 3.42 3.32 3.16 3.10 3.17 3.42 3.65 3.59 3.48 3.23 2.93 2.72 2.46 2.31 2.33 2.29 2.39 2.40 2.46 2.73 2.62 2.56 2.39 2.50 2.78 3.11
3.57 4.01 3.79 3.50 3.68 3.83 3.91 3.96 3.71 3.81 4.14 4.28 4.34 4.23 3.86 3.48 3.43 3.60 3.62 3.56 3.47 3.51 3.59 3.49 3.68 3.54 3.58 3.35 2.87 2.66 2.48 2.40 2.41 2.42 2.47 2.45 2.57 2.69 2.64 2.41 2.36 2.53 2.71
3.86 4.52 4.10 3.65 3.63 3.94 3.97 3.86 3.83 3.98 4.27 4.54 4.50 4.29 4.06 3.91 3.76 3.87 3.82 3.87 3.94 4.02 3.88 3.82 3.84 3.61 3.44 3.35 2.95 2.75 2.58 2.42 2.39 2.33 2.24 2.27 2.36 2.31 2.37 2.37 2.43 2.29 2.39
3.77 4.22 4.21 3.99 4.00 4.05 4.10 3.92 4.10 4.30 4.59 4.84 4.73 4.61 4.52 4.43 4.38 4.39 4.41 4.41 4.26 4.17 4.03 3.88 3.78 3.63 3.39 3.22 3.16 2.81 2.39 2.08 1.98 1.92 1.95 2.02 2.01 2.02 2.13 2.32 2.45 2.37 2.20
3.44 3.66 3.98 4.14 4.16 3.91 4.23 4.53 4.80 5.14 5.18 5.46 5.71 5.75 5.58 5.30 5.10 4.91 4.89 4.62 4.32 4.16 4.01 3.81 3.68 3.49 3.17 3.07 3.03 3.01 2.55 2.16 1.78 1.56 1.66 1.66 1.72 1.88 1.98 1.94 2.03 2.07 1.99
3.26 3.55 3.88 4.22 4.33 4.22 4.67 5.18 5.61 5.97 5.90 5.93 5.96 5.97 5.91 5.50 5.13 4.91 4.69 4.52 4.32 4.17 3.98 3.85 3.71 3.55 3.25 3.06 2.97 3.16 2.98 2.56 2.07 1.80 1.64 1.63 1.72 1.80 1.79 1.75 1.75 1.75 1.79
3.03 3.35 3.62 4.04 4.45 4.72 5.09 5.58 6.13 6.46 6.68 6.53 6.19 5.91 5.54 5.10 4.73 4.35 4.17 4.21 4.08 3.89 3.66 3.37 3.25 3.22 3.13 2.96 2.88 2.77 2.75 2.69 2.49 2.18 1.92 1.89 1.93 1.89 1.81 1.75 1.82 1.90 1.91
2.79 3.09 3.42 3.77 4.19 4.79 5.55 6.15 6.57 6.93 6.95 6.43 5.89 5.30 4.83 4.48 4.16 3.87 3.73 3.81 3.70 3.47 3.27 3.02 2.81 2.68 2.65 2.70 2.70 2.63 2.55 2.52 2.36 2.23 2.04 1.95 1.92 1.86 1.78 1.75 1.81 1.90 1.92
2.57 2.84 3.21 3.64 4.03 4.56 5.30 5.95 6.25 6.45 6.41 5.98 5.35 4.79 4.35 3.92 3.56 3.22 2.97 2.90 2.82 2.66 2.57 2.53 2.45 2.42 2.41 2.44 2.44 2.37 2.33 2.32 2.28 2.30 2.18 1.96 1.92 1.98 1.89 1.75 1.66 1.65 1.68